SES-22

Last updated on Mon Jul 07 2025 00:02:47 GMT+0000 (Coordinated Universal Time)

1 52933U 22071A 25187.34704439 .00000121 00000+0 00000+0 0 9993 2 52933 0.0216 66.1936 0001181 32.4898 171.8234 1.00274001 4059
UTC large
Height (km)
Speed (km/s)
/
Latitude / Longitude
Inclination (degrees)
Orbital Period (minutes)
Azimuth
Elevation
Range (km)
Doppler Factor

Next 0 passes for location: London (51.5072 / 0.1276)

Sorry there are no passes over London.